Weather History for Seward, AK

Change the Weather History Date:

Sunday, November 3, 2013

  Actual Average Record
Temperature  
Mean Temperature 40 °F -  
Max Temperature 42 °F 38 °F 50 °F (1998)
Min Temperature 37 °F 29 °F 5 °F (1975)
Degree Days  
Heating Degree Days 26    
Moisture  
Dew Point 39 °F    
Average Humidity 97    
Maximum Humidity 100    
Minimum Humidity 93    
Precipitation  
Precipitation 0.19 in - - ()
Sea Level Pressure  
Sea Level Pressure 29.76 in    
Wind  
Wind Speed 0 mph (NNW)    
Max Wind Speed 4 mph    
Max Gust Speed -    
Visibility 9 miles    
Events Rain    
Averages and records for this station are not official NWS values.
T = Trace of Precipitation, MM = Missing Value Source: NWS Daily Summary

Daily Weather History Graph

Daily Weather History Graph

Search for Another Location

Airport:

Trip Planner

Search our weather history database for the weather conditions in past years. The results will help you decide how hot, cold, wet, or windy it might be!

Date:

Astronomy

Nov. 03, 2013 Rise Set
Actual Time 8:26 AM AKST 4:54 PM AKST
Civil Twilight 7:40 AM AKST 5:40 PM AKST
Nautical Twilight 6:50 AM AKST 6:30 PM AKST
Astronomical Twilight 6:02 AM AKST 7:18 PM AKST
Moon 8:49 AM AKST (11/3) 5:05 PM AKST (11/3)
Length of Visible Light 9h 59m
Length of Day
8h 27m
New Moon, 0% of the Moon is Illuminated
Nov 3
New Moon
Nov 9
First Quarter
Nov 17
Full
Nov 25
Last Quarter
Dec 2
New

Hourly Weather History & Observations

Time (AKST) Temp. Windchill Dew Point Humidity Pressure Visibility Wind Dir Wind Speed Gust Speed Precip Events Conditions
12:53 AM 39.0 °F - 37.0 °F 93% 29.88 in 10.0 mi Calm Calm - 0.00 in Rain Light Rain
1:53 AM 37.9 °F - 37.0 °F 97% 29.88 in 10.0 mi Calm Calm - 0.00 in Rain Light Rain
1:53 AM 37.9 °F - 37.0 °F 97% 29.88 in 10.0 mi Calm Calm - 0.00 in   Overcast
3:53 AM 37.9 °F - 37.0 °F 97% 29.87 in 10.0 mi Calm Calm - 0.00 in   Overcast
4:53 AM 37.9 °F - 37.0 °F 97% 29.86 in 10.0 mi Calm Calm - 0.01 in   Overcast
5:53 AM 37.9 °F - 37.0 °F 97% 29.84 in 10.0 mi Calm Calm - N/A   Overcast
6:53 AM 37.9 °F 35.5 °F 37.0 °F 97% 29.85 in 10.0 mi NNW 3.5 mph - N/A   Overcast
7:53 AM 39.0 °F - 37.9 °F 96% 29.84 in 10.0 mi Calm Calm - 0.01 in Rain Light Rain
8:53 AM 39.0 °F - 37.9 °F 96% 29.83 in 10.0 mi Calm Calm - 0.01 in Rain Light Rain
9:53 AM 39.0 °F - 37.9 °F 96% 29.84 in 10.0 mi Calm Calm - 0.01 in Rain Light Rain
10:27 AM 39.2 °F - 39.2 °F 100% 29.83 in 8.0 mi Calm Calm - 0.01 in Rain Light Rain
10:53 AM 39.9 °F - 39.0 °F 97% 29.83 in 10.0 mi Calm Calm - 0.02 in Rain Light Rain
11:10 AM 41.0 °F - 39.2 °F 93% 29.83 in 10.0 mi Calm Calm - 0.00 in Rain Light Rain
11:53 AM 41.0 °F - 39.0 °F 93% 29.82 in 8.0 mi Calm Calm - 0.01 in Rain Light Rain
12:53 PM 41.0 °F - 39.9 °F 96% 29.80 in 8.0 mi Calm Calm - 0.01 in Rain Light Rain
1:53 PM 42.1 °F - 41.0 °F 96% 29.78 in 10.0 mi Calm Calm - 0.00 in   Overcast
2:53 PM 42.1 °F - 41.0 °F 96% 29.75 in 9.0 mi Calm Calm - 0.01 in Rain Light Rain
3:53 PM 42.1 °F - 41.0 °F 96% 29.73 in 9.0 mi Calm Calm - 0.01 in Rain Light Rain
4:53 PM 41.0 °F - 39.9 °F 96% 29.72 in 4.0 mi Calm Calm - 0.03 in Rain Light Rain
5:53 PM 41.0 °F - 39.9 °F 96% 29.70 in 4.0 mi Calm Calm - 0.03 in Rain Light Rain
6:53 PM 41.0 °F - 39.9 °F 96% 29.67 in 7.0 mi Calm Calm - 0.02 in Rain Light Rain
7:53 PM 41.0 °F - 39.0 °F 93% 29.65 in 10.0 mi Calm Calm - 0.00 in Rain Light Rain
8:50 PM 39.2 °F - 39.2 °F 100% 29.62 in 7.0 mi Calm Calm - 0.00 in Rain Light Rain
8:53 PM 39.9 °F - 39.0 °F 97% 29.62 in 7.0 mi Calm Calm - 0.00 in Rain Light Rain
9:09 PM 39.2 °F - 39.2 °F 100% 29.62 in 9.0 mi Calm Calm - 0.01 in Rain Light Rain
9:12 PM 39.2 °F - 39.2 °F 100% 29.61 in 9.0 mi Calm Calm - 0.01 in Rain Light Rain
9:25 PM 39.2 °F - 39.2 °F 100% 29.61 in 8.0 mi Calm Calm - 0.01 in   Overcast
9:53 PM 39.9 °F - 39.0 °F 97% 29.60 in 8.0 mi Calm Calm - 0.01 in   Overcast
10:53 PM 39.0 °F - 37.9 °F 96% 29.57 in 4.0 mi Calm Calm - 0.00 in   Overcast